C/2019 L3 ( ATLAS )

Japanese version
Home page
Updated on September 18, 2021

---------------------------------------------------------------------

* Profile

Discovery Date June 10, 2019
Magnitude 18.1 mag
Discoverer Asteroid Terrestrial-Impact Last Alert System (ATLAS) search program

* Pictures

* Orbital Elements

Epoch 2022 Jan. 21.0 TT = JDT 2459600.5
T 2022 Jan.  9.61976 TT                                 Rudenko
q   3.5544840            (2000.0)            P               Q
z  -0.0004519      Peri.  171.61096     -0.26052745     -0.66630679
 +/-0.0000004      Node   290.79037     +0.83676029     +0.20517229
e   1.0016063      Incl.   48.36120     +0.48161983     -0.71689581
From 2064 observations 2019 June 10-2021 May 31, mean residual 0".4.

* Finding Charts

* Magnitudes Graph

        m1 = -0.5 + 5 log d + 15.0 log r

---------------------------------------------------------------------

The orbital elements are published on M.P.E.C. 2021-L04.
The charts are made with StellaNavigator Ver.10 (AstroArts).
The magnitudes graphs are made with Comet for Windows.

---------------------------------------------------------------------

Copyright(C) Seiichi Yoshida (comet@aerith.net). All rights reserved.